GW0658 Weather Reports


Display with metric or nautical units.
time (UTC)temp
F
wind
direction
speed
MPH
gust
MPH
rain 1hr
in
rain 24hr
in
rain mn
in
humidity
%
barometer
mb
20260502194017 67 232 3.0 9.0 0.00 0.00 0.00 60 1015.7
20260502193520 68 235 4.0 14.0 0.00 0.00 0.00 58 1015.8
20260502193035 68 205 5.0 14.0 0.00 0.00 0.00 59 1015.7
20260502192519 68 231 3.0 10.0 0.00 0.00 0.00 59 1015.8
20260502192017 68 215 4.0 10.0 0.00 0.00 0.00 58 1015.8
20260502191540 68 225 3.0 10.0 0.00 0.00 0.00 61 1015.8
20260502191018 68 233 4.0 9.0 0.00 0.00 0.00 58 1016.0
20260502190518 68 225 4.0 9.0 0.00 0.00 0.00 58 1015.8
20260502190032 68 238 2.0 8.0 0.00 0.00 0.00 58 1015.9
20260502185518 68 203 3.0 8.0 0.00 0.00 0.00 61 1016.0
20260502185019 67 208 4.0 9.0 0.00 0.00 0.00 59 1015.9
20260502184541 67 248 4.0 10.0 0.00 0.00 0.00 59 1016.0
20260502184019 67 130 2.0 10.0 0.00 0.00 0.00 61 1016.0
20260502183522 67 211 3.0 7.0 0.00 0.00 0.00 60 1016.0
20260502183035 67 236 3.0 7.0 0.00 0.00 0.00 61 1016.0
20260502182519 67 225 3.0 7.0 0.00 0.00 0.00 61 1016.0
20260502182017 67 198 2.0 6.0 0.00 0.00 0.00 61 1016.0
20260502181540 67 259 3.0 6.0 0.00 0.00 0.00 60 1016.0
20260502181017 67 220 2.0 7.0 0.00 0.00 0.00 61 1016.0
20260502180518 67 203 3.0 7.0 0.00 0.00 0.00 58 1016.0
20260502170518 67 20 1.0 5.0 0.00 0.00 0.00 56 1015.8
20260502164017 66 157 1.0 12.0 0.00 0.00 0.00 56 1015.6
20260502163517 66 227 3.0 12.0 0.00 0.00 0.00 57 1015.7
20260502163057 65 181 3.0 12.0 0.00 0.00 0.00 55 1015.7
20260502162521 65 248 1.0 6.0 0.00 0.00 0.00 59 1015.7
20260502162024 65 225 3.0 6.0 0.00 0.00 0.00 59 1015.7
20260502161542 64 0 0.0 4.0 0.00 0.00 0.00 62 1015.6
20260502161017 63 0 1.0 4.0 0.00 0.00 0.00 60 1015.5
20260502160518 63 267 0.0 3.0 0.00 0.00 0.00 64 1015.5
20260502152017 58 0 0.0 0.0 0.00 0.00 0.00 71 1015.4
20260502151538 57 0 0.0 0.0 0.00 0.00 0.00 71 1015.4
20260502151017 57 0 0.0 2.0 0.00 0.00 0.00 71 1015.4
20260502150517 57 0 0.0 3.0 0.00 0.00 0.00 70 1015.5
20260502130518 54 0 0.0 0.0 0.00 0.00 0.00 68 1014.7
20260502123518 54 0 0.0 3.0 0.00 0.00 0.00 68 1014.9
20260502123034 54 80 0.0 3.0 0.00 0.00 0.00 68 1014.8
20260502122519 54 75 1.0 3.0 0.00 0.00 0.00 68 1014.8
20260502122019 54 63 1.0 3.0 0.00 0.00 0.00 68 1014.9
20260502121535 54 68 1.0 3.0 0.00 0.00 0.00 68 1014.9
20260502121018 55 74 1.0 3.0 0.00 0.00 0.00 67 1014.9
20260502120516 55 69 1.0 3.0 0.00 0.00 0.00 67 1015.1
20260502115519 55 83 0.0 2.0 0.00 0.00 0.00 65 1015.1
20260502115017 55 0 0.0 2.0 0.00 0.00 0.00 65 1015.2
20260502114547 55 0 0.0 2.0 0.00 0.00 0.00 65 1015.2
20260502114017 56 83 1.0 2.0 0.00 0.00 0.00 65 1015.2
20260502113519 56 79 1.0 3.0 0.00 0.00 0.00 65 1015.2
20260502113039 56 79 1.0 3.0 0.00 0.00 0.00 66 1015.2
20260502112517 56 79 1.0 2.0 0.00 0.00 0.00 67 1015.3
20260502112017 56 79 1.0 2.0 0.00 0.00 0.00 68 1015.3
20260502111536 56 79 0.0 2.0 0.00 0.00 0.00 69 1015.2
20260502111017 56 79 1.0 3.0 0.00 0.00 0.00 71 1015.3
20260502110517 56 79 1.0 3.0 0.00 0.00 0.00 72 1015.3
20260502110035 56 79 1.0 3.0 0.00 0.00 0.00 72 1015.4
20260502105519 56 79 1.0 3.0 0.00 0.00 0.00 72 1015.4
20260502105029 56 79 1.0 3.0 0.00 0.00 0.00 72 1015.4
20260502104535 56 79 1.0 3.0 0.00 0.00 0.00 72 1015.4
20260502104017 56 79 1.0 3.0 0.00 0.00 0.00 72 1015.5
20260502103517 56 79 1.0 3.0 0.00 0.00 0.00 72 1015.4
20260502103037 56 79 1.0 3.0 0.00 0.00 0.00 72 1015.5
20260502102517 56 79 1.0 2.0 0.00 0.00 0.00 72 1015.5
20260502102017 56 0 0.0 0.0 0.00 0.00 0.00 73 1015.5
20260502101533 56 0 0.0 0.0 0.00 0.00 0.00 73 1015.5
20260502101017 56 0 0.0 0.0 0.00 0.00 0.00 74 1015.5
20260502100518 56 0 0.0 0.0 0.00 0.00 0.00 74 1015.5
20260502091533 56 0 0.0 0.0 0.00 0.00 0.00 77 1015.8
20260502091017 56 0 0.0 0.0 0.00 0.00 0.00 77 1015.8
20260502090518 56 0 0.0 0.0 0.00 0.00 0.00 77 1015.9
20260502071019 57 0 0.0 0.0 0.00 0.00 0.00 73 1016.5
20260502070522 57 0 0.0 0.0 0.00 0.00 0.00 73 1016.6
20260502070049 57 0 0.0 0.0 0.00 0.00 0.00 74 1016.7
20260502065519 57 0 0.0 0.0 0.00 0.00 0.00 75 1016.5
20260502065017 57 0 0.0 0.0 0.00 0.00 0.00 75 1016.6
20260502064543 57 0 0.0 0.0 0.00 0.00 0.00 77 1016.6
20260502064020 57 0 0.0 0.0 0.00 0.00 0.00 78 1016.6
20260502063520 57 0 0.0 0.0 0.00 0.00 0.00 77 1016.5
20260502063036 58 0 0.0 0.0 0.00 0.00 0.00 77 1016.6
20260502062518 58 0 0.0 0.0 0.00 0.00 0.00 77 1016.6
20260502062020 58 0 0.0 0.0 0.00 0.00 0.00 77 1016.6
20260502061541 58 0 0.0 0.0 0.00 0.00 0.00 77 1016.6
20260502061021 58 0 0.0 0.0 0.00 0.00 0.00 77 1016.6
20260502060517 58 0 0.0 0.0 0.00 0.00 0.00 78 1016.6
20260502060035 58 0 0.0 0.0 0.00 0.00 0.00 78 1016.6
20260502055517 58 0 0.0 0.0 0.00 0.00 0.00 78 1016.8
20260502055018 58 0 0.0 0.0 0.00 0.00 0.00 78 1016.8
20260502054540 58 0 0.0 0.0 0.00 0.00 0.00 79 1016.8
20260502054019 58 0 0.0 0.0 0.00 0.00 0.00 79 1016.9
20260502053519 57 0 0.0 0.0 0.00 0.00 0.00 79 1016.8
20260502053035 57 0 0.0 0.0 0.00 0.00 0.00 79 1016.9
20260502052517 57 0 0.0 2.0 0.00 0.00 0.00 79 1016.9
20260502052020 57 0 0.0 2.0 0.00 0.00 0.00 79 1016.9
20260502051535 57 0 1.0 3.0 0.00 0.00 0.00 79 1016.8
20260502051016 57 77 1.0 3.0 0.00 0.00 0.00 79 1016.8
20260502050520 57 77 1.0 3.0 0.00 0.00 0.00 79 1016.8
20260502050036 57 77 1.0 3.0 0.00 0.00 0.00 79 1016.8
20260502045520 57 77 1.0 3.0 0.00 0.00 0.00 79 1016.8
20260502045021 57 77 2.0 3.0 0.00 0.00 0.00 79 1016.8
20260502044549 57 0 0.0 2.0 0.00 0.00 0.00 79 1016.7
20260502044017 57 77 1.0 2.0 0.00 0.00 0.00 79 1016.6
20260502043519 57 77 1.0 2.0 0.00 0.00 0.00 79 1016.6
20260502043047 57 77 1.0 2.0 0.00 0.00 0.00 79 1016.6
20260502042519 57 77 1.0 2.0 0.00 0.00 0.00 79 1016.6
20260502042021 58 0 0.0 2.0 0.00 0.00 0.00 79 1016.6
20260502041546 58 0 1.0 2.0 0.00 0.00 0.00 79 1016.5
20260502041022 58 77 1.0 2.0 0.00 0.00 0.00 79 1016.6
20260502040517 58 77 1.0 2.0 0.00 0.00 0.00 78 1016.6
20260502040039 58 77 1.0 2.0 0.00 0.00 0.00 78 1016.5
20260502035519 58 77 1.0 3.0 0.00 0.00 0.00 78 1016.5
20260502035019 58 77 1.0 3.0 0.00 0.00 0.00 78 1016.3
20260502034538 58 77 1.0 2.0 0.00 0.00 0.00 77 1016.3
20260502034024 59 77 1.0 2.0 0.00 0.00 0.00 77 1016.3
20260502033520 59 77 1.0 3.0 0.00 0.00 0.00 76 1016.3
20260502033037 59 77 1.0 3.0 0.00 0.00 0.00 75 1016.2
20260502032519 59 182 1.0 2.0 0.00 0.00 0.00 75 1016.2
20260502032018 60 182 1.0 2.0 0.00 0.00 0.00 74 1016.1
20260502031541 60 181 0.0 2.0 0.00 0.00 0.00 75 1016.1
20260502031019 60 0 0.0 2.0 0.00 0.00 0.00 74 1016.1
20260502030517 60 0 1.0 2.0 0.00 0.00 0.00 74 1016.0
20260502030041 61 227 1.0 2.0 0.00 0.00 0.00 73 1015.9
20260502025520 62 227 0.0 2.0 0.00 0.00 0.00 72 1015.9
20260502025020 62 0 0.0 0.0 0.00 0.00 0.00 71 1016.0
20260502024542 62 0 0.0 0.0 0.00 0.00 0.00 70 1016.0
20260502024020 63 0 0.0 2.0 0.00 0.00 0.00 69 1016.0
20260502023520 63 0 0.0 3.0 0.00 0.00 0.00 67 1016.0
20260502023039 63 227 1.0 3.0 0.00 0.00 0.00 68 1015.9
20260502022520 64 215 2.0 4.0 0.00 0.00 0.00 67 1016.0
20260502022019 64 248 1.0 4.0 0.00 0.00 0.00 65 1015.9
20260502021545 64 0 0.0 0.0 0.00 0.00 0.00 63 1015.8
20260502021019 65 0 0.0 0.0 0.00 0.00 0.00 62 1015.9
20260502020519 65 0 0.0 0.0 0.00 0.00 0.00 62 1015.9
20260502020034 65 0 0.0 0.0 0.00 0.00 0.00 61 1015.9
20260502015518 66 0 0.0 0.0 0.00 0.00 0.00 61 1016.0
20260502015017 66 0 0.0 2.0 0.00 0.00 0.00 59 1016.0
20260502014549 66 0 0.0 2.0 0.00 0.00 0.00 60 1016.0
20260502014020 66 0 0.0 4.0 0.00 0.00 0.00 61 1016.1
20260502013519 66 241 2.0 4.0 0.00 0.00 0.00 59 1016.0
20260502013041 66 243 2.0 5.0 0.00 0.00 0.00 60 1016.1
20260502012519 66 227 1.0 5.0 0.00 0.00 0.00 59 1016.1
20260502012019 66 246 3.0 5.0 0.00 0.00 0.00 59 1016.1
20260502011545 66 265 1.0 5.0 0.00 0.00 0.00 59 1016.1
20260502011020 66 0 1.0 5.0 0.00 0.00 0.00 57 1016.1
20260502010519 66 260 1.0 5.0 0.00 0.00 0.00 60 1016.2
20260502010039 66 260 1.0 8.0 0.00 0.00 0.00 56 1016.2
20260502005520 66 217 2.0 8.0 0.00 0.00 0.00 58 1016.2
20260502005018 66 240 1.0 7.0 0.00 0.00 0.00 58 1016.2
20260502004534 67 199 2.0 7.0 0.00 0.00 0.00 55 1016.2
20260502004018 67 244 3.0 8.0 0.00 0.00 0.00 55 1016.2
20260502003519 67 228 2.0 8.0 0.00 0.00 0.00 56 1016.2
20260502003034 68 252 2.0 5.0 0.00 0.00 0.00 52 1016.2
20260502002519 68 289 3.0 7.0 0.00 0.00 0.00 55 1016.2
20260502002018 67 245 2.0 7.0 0.00 0.00 0.00 56 1016.2
20260502001534 68 218 3.0 7.0 0.00 0.00 0.00 54 1016.2
20260502001019 68 225 3.0 7.0 0.00 0.00 0.00 56 1016.3
20260502000518 68 234 2.0 7.0 0.00 0.00 0.00 57 1016.2
20260502000051 68 205 2.0 7.0 0.00 0.00 0.00 60 1016.2
20260501235518 67 248 2.0 8.0 0.00 0.00 0.00 61 1016.3
20260501235018 67 251 5.0 8.0 0.00 0.00 0.00 61 1016.3
20260501234535 67 257 4.0 10.0 0.00 0.00 0.00 62 1016.3
20260501234019 67 283 3.0 10.0 0.00 0.00 0.00 62 1016.3
20260501233518 67 235 5.0 11.0 0.00 0.00 0.00 62 1016.5
20260501233043 67 255 4.0 11.0 0.00 0.00 0.00 59 1016.4
20260501232521 68 238 4.0 11.0 0.00 0.00 0.00 57 1016.5
20260501232023 68 238 6.0 11.0 0.00 0.00 0.00 55 1016.5
20260501231548 69 222 3.0 9.0 0.00 0.00 0.00 55 1016.5
20260501231018 69 205 3.0 8.0 0.00 0.00 0.00 54 1016.6
20260501230523 69 267 3.0 9.0 0.00 0.00 0.00 51 1016.6
20260501230042 69 86 2.0 9.0 0.00 0.00 0.00 47 1016.5
20260501225518 69 241 4.0 9.0 0.00 0.00 0.00 47 1016.6
20260501225018 69 229 3.0 8.0 0.00 0.00 0.00 51 1016.6
20260501224538 70 275 3.0 8.0 0.00 0.00 0.00 49 1016.7
20260501224018 69 273 3.0 10.0 0.00 0.00 0.00 47 1016.8
20260501223517 69 265 4.0 10.0 0.00 0.00 0.00 45 1016.8
20260501223039 69 188 2.0 8.0 0.00 0.00 0.00 43 1016.9
20260501222518 70 217 4.0 9.0 0.00 0.00 0.00 48 1017.0
20260501222019 70 276 2.0 9.0 0.00 0.00 0.00 50 1016.9
20260501221535 69 236 4.0 10.0 0.00 0.00 0.00 51 1017.1
20260501221017 69 241 5.0 10.0 0.00 0.00 0.00 50 1017.1
20260501220517 70 236 4.0 10.0 0.00 0.00 0.00 53 1017.1
20260501220035 70 232 5.0 10.0 0.00 0.00 0.00 52 1017.1
20260501215520 69 220 4.0 9.0 0.00 0.00 0.00 53 1017.2
20260501215019 70 263 5.0 9.0 0.00 0.00 0.00 53 1017.2
20260501214543 70 254 3.0 7.0 0.00 0.00 0.00 56 1017.2
20260501214019 70 267 3.0 7.0 0.00 0.00 0.00 57 1017.2
20260501213518 69 269 4.0 9.0 0.00 0.00 0.00 56 1017.1
20260501213039 68 263 3.0 9.0 0.00 0.00 0.00 57 1017.1
20260501212519 69 257 5.0 9.0 0.00 0.00 0.00 52 1017.2
20260501212019 70 241 4.0 9.0 0.00 0.00 0.00 50 1017.1
20260501211534 70 255 3.0 9.0 0.00 0.00 0.00 51 1017.2
20260501211021 69 246 3.0 9.0 0.00 0.00 0.00 53 1017.2
20260501210518 69 213 2.0 12.0 0.00 0.00 0.00 53 1017.2
20260501210034 69 219 4.0 12.0 0.00 0.00 0.00 49 1017.2
20260501205517 70 243 5.0 12.0 0.00 0.00 0.00 48 1017.2
20260501205016 70 207 3.0 11.0 0.00 0.00 0.00 52 1017.1
20260501204542 70 210 2.0 11.0 0.00 0.00 0.00 48 1017.3
20260501204016 70 219 6.0 11.0 0.00 0.00 0.00 49 1017.3
20260501203519 70 225 3.0 9.0 0.00 0.00 0.00 50 1017.2
20260501203035 69 219 3.0 9.0 0.00 0.00 0.00 50 1017.2
20260501202519 69 248 2.0 7.0 0.00 0.00 0.00 48 1017.3
20260501202019 70 227 3.0 8.0 0.00 0.00 0.00 48 1017.4
20260501201551 70 242 5.0 8.0 0.00 0.00 0.00 48 1017.3
20260501201020 70 246 3.0 9.0 0.00 0.00 0.00 49 1017.4
20260501200519 70 249 4.0 9.0 0.00 0.00 0.00 46 1017.4
20260501200035 69 240 5.0 11.0 0.00 0.00 0.00 50 1017.3
20260501195519 69 248 2.0 11.0 0.00 0.00 0.00 47 1017.4
20260501195018 69 248 5.0 11.0 0.00 0.00 0.00 45 1017.6
20260501194545 70 218 4.0 10.0 0.00 0.00 0.00 46 1017.5